Content
SEND FEEDBACK

Daily
Averages
Monthly
Summary
United States of America

HAZELWOOD, MISSOURI


Home > North America > United States > Missouri
Elevation: 570 feet     Latitude: 38 45N     Longitude: 090 22W

WEATHER
 
SELECT A DAY
Number of Records: 196,446;   Date Range: 1/1/95 - 8/12/14
 
SHARE

PRINT THIS DATA

[ ← Previous Day ]
WEATHER ALMANAC - MARCH 7, 2013
[ Next Day → ]
[ °C ]   °F
Weather ElementAverageHighLow
Temperature34.7 °F48 °F (2:54 pm)19.9 °F (6:54 am)
Dewpoint23.6 °F28 °F (7:54 pm)16 °F (6:54 am)
Humidity66.4 %88 % (1:54 am)39 % (3:54 pm)
Barometer30.38 in30.44 in (7:54 am)30.32 in (4:54 pm)
Wind Speed3.5 mph9.2 mph (1:54 pm)
Weather ElementAverage
Visibility9.3 mi
Wind DirectionENE (50.9 °)

Weather ElementTotal
Precipitation---
Heating Degree Days31.1 (Base 65)
Averaged from 23 records on March 7, 2013
WEATHER CONDITIONS BREAKOUT
WIND DIRECTION BREAKOUT
WEATHER BY HOUR - MARCH 7, 2013
[ °C ]   °F
Local TimeTemperatureDewpointHumidityBarometerVisibilityWind DirectionWind SpeedGust SpeedPrecipitationEventsConditions
1:54 AM21.0 °F18.0 °F88 %30.40 in10.0 miCalmClear
2:54 AM21.0 °F18.0 °F88 %30.39 in9.0 miCalmClear
3:54 AM23.0 °F19.0 °F85 %30.40 in9.0 miCalmClear
4:54 AM21.9 °F18.0 °F85 %30.40 in8.0 miCalmClear
5:54 AM21.0 °F18.0 °F88 %30.40 in6.0 miCalmScattered Clouds
6:54 AM19.9 °F16.0 °F85 %30.42 in7.0 miCalmPartly Cloudy
7:54 AM27.0 °F23.0 °F85 %30.44 in6.0 miCalmClear
8:54 AM30.9 °F24.1 °F76 %30.44 in9.0 miCalmClear
9:54 AM35.1 °F24.1 °F64 %30.44 in10.0 miESE (110°)5.8 mphPartly Cloudy
10:54 AM37.0 °F24.1 °F59 %30.43 in10.0 miCalmClear
11:54 AM41.0 °F25.0 °F53 %30.40 in10.0 miVariable4.6 mphClear
12:54 PM44.1 °F25.0 °F47 %30.38 in10.0 miVariable4.6 mphClear
1:54 PM46.9 °F26.1 °F44 %30.35 in10.0 miEast (90°)9.2 mphScattered Clouds
2:54 PM48.0 °F26.1 °F42 %30.33 in10.0 miVariable4.6 mphScattered Clouds
3:54 PM48.0 °F24.1 °F39 %30.33 in10.0 miESE (120°)3.5 mphPartly Cloudy
4:54 PM46.9 °F24.1 °F41 %30.32 in10.0 miSE (140°)5.8 mphPartly Cloudy
5:54 PM44.1 °F26.1 °F49 %30.33 in10.0 miESE (110°)6.9 mphPartly Cloudy
6:54 PM41.0 °F26.1 °F55 %30.34 in10.0 miEast (100°)6.9 mphClear
7:54 PM39.0 °F28.0 °F65 %30.34 in10.0 miEast (100°)6.9 mphClear
8:54 PM36.0 °F28.0 °F73 %30.35 in10.0 miEast (100°)6.9 mphClear
9:54 PM36.0 °F27.0 °F70 %30.35 in10.0 miEast (90°)5.8 mphClear
10:54 PM35.1 °F27.0 °F72 %30.37 in10.0 miEast (100°)4.6 mphClear
11:54 PM34.0 °F27.0 °F75 %30.38 in10.0 miESE (110°)4.6 mphClear
Hourly data recorded from KSUS, located miles away from Hazelwood, Missouri







STORIES FROM OUR PARTNERS